Tracking 29747 objects as of 9-Oct-2024
HD Live streaming from Space Station
objects crossing your sky now

DELTA 1 DEB

Track DELTA 1 DEB now!
10-day predictions


NORAD ID: 21271
Int'l Code: 1975-052G
Perigee: 1,074.5 km
Apogee: 1,446.4 km
Inclination: 99.6 °
Period: 110.6 minutes
Semi major axis: 7631 km
RCS: 0.0582 m2 (small)
Launch date: June 12, 1975
Source: United States (US)
Launch site: AIR FORCE WESTERN TEST RANGE (AFWTR)

Note: This is SATELLITE DEBRIS
Your satellite tracking list
Your tracking list is empty




NASA's NSSDC Master Catalog

Two Line Element Set (TLE):
1 21271U 75052G   24283.17705052  .00001011  00000-0  29378-2 0  9992
2 21271  99.6188  10.7749 0243637 286.0663 100.2718 13.02245921587873
Source of the keplerian elements: AFSPC